Cloud_Cover
0 0 0 0 93 100 100 100 100 100 100 89 45 91 100 100 100 100 100 99 100 92 47 100 99 88 74 82 100 100 100 100
0 0 0 0 6 100 100 100 100 100 100 100 99 98 100 100 100 100 100 92 99 100 33 54 100 99 100 100 100 100 100 100
0 0 0 4 12 92 100 100 100 100 100 100 100 84 100 100 100 94 100 100 87 100 100 97 100 98 99 100 100 100 100 89
0 0 0 14 23 61 100 100 100 100 100 99 100 84 100 100 100 100 100 100 95 100 100 100 100 48 76 100 62 16 22 76
0 0 0 5 22 100 100 100 100 100 94 92 100 100 100 100 100 100 100 100 100 100 100 65 60 61 37 80 37 30 40 30
0 0 0 33 96 100 100 100 100 100 100 100 100 100 100 100 100 100 100 100 100 100 100 100 100 88 5 40 39 67 59 68
0 0 0 15 84 100 100 100 100 100 99 100 100 100 100 100 100 100 100 100 100 61 68 100 100 89 27 13 5 28 9 63
0 0 0 0 100 99 100 100 100 100 96 92 100 100 100 100 100 100 100 100 100 100 100 100 100 100 64 5 41 9 64 48
0 0 0 0 85 98 100 100 100 100 100 100 100 100 100 100 100 100 100 100 100 100 93 41 82 100 100 100 79 24 48 100
12 0 0 0 11 100 100 100 100 100 100 100 100 100 100 100 100 100 100 100 100 100 100 100 92 100 100 100 100 100 100 100
100 57 0 0 1 52 98 100 100 91 100 100 100 100 100 100 100 100 100 100 94 100 100 100 100 100 100 100 100 100 100 100
100 100 29 0 0 14 100 89 94 100 100 100 100 100 100 100 100 100 100 99 81 97 82 47 82 100 100 100 100 96 99 100
100 100 100 33 0 4 90 100 99 72 100 100 100 100 100 100 100 100 100 100 79 94 100 100 100 100 100 100 100 100 100 100
100 100 100 100 44 13 63 100 100 100 100 100 100 100 100 100 100 100 100 100 100 100 6 93 100 100 100 100 100 100 100 100
100 100 100 100 100 84 100 100 100 100 49 100 96 100 100 100 100 100 100 100 100 80 80 100 100 100 100 100 100 100 100 100
100 100 100 100 100 100 100 100 100 100 100 100 92 100 100 100 100 100 100 100 100 100 100 100 100 100 100 100 100 100 100 100
100 100 100 100 100 100 100 100 100 100 100 100 100 88 100 100 100 100 100 100 97 99 100 100 100 100 100 100 100 87 100 100
100 100 100 100 100 100 100 100 100 100 100 100 100 100 100 100 100 100 100 100 100 100 100 100 100 100 100 100 100 84 100 99
100 100 100 100 100 100 100 100 100 100 100 100 100 100 100 100 100 100 100 100 100 100 100 100 100 100 100 100 100 100 100 99